Location: Caltech
(34.1382°N, 118.1253°W)
Time: 03:37:05
(UTC-08:00)

PANSAT - Visible Passes

Search period start: 31 January 2015 00:00
Search period end: 10 February 2015 00:00
Orbit: 487 x 493 km, 28.5° (Epoch: 30 January)

Date Brightness Start Highest point End Pass type
(mag) Time Alt. Az. Time Alt. Az. Time Alt. Az.
31 Jan 8.8 04:58:19 33° SSE 04:58:19 33° SSE 05:01:35 10° ESE visible
01 Feb 9.8 04:33:23 22° SE 04:33:23 22° SE 04:35:09 10° ESE visible
01 Feb 9.0 06:08:03 10° WSW 06:11:23 28° S 06:14:42 10° SE visible
02 Feb 10.8 04:08:26 11° ESE 04:08:26 11° ESE 04:08:41 10° ESE visible
02 Feb 9.0 05:42:46 17° WSW 05:44:55 28° S 05:48:13 10° SE visible
03 Feb 8.9 05:17:48 26° SSW 05:18:27 27° S 05:21:44 10° SE visible
04 Feb 9.3 04:52:51 24° SSE 04:52:51 24° SSE 04:55:14 10° SE visible
05 Feb 10.3 04:27:55 14° SE 04:27:55 14° SE 04:28:43 10° SE visible
05 Feb 10.0 06:04:04 10° SW 06:05:03 11° SSW 06:05:56 10° S visible
06 Feb 10.0 05:38:00 10° SSW 05:38:33 10° SSW 05:39:00 10° SSW visible
